CW3642 Weather Reports


Display with metric or nautical units.
time (UTC)temp
F
wind
direction
speed
MPH
gust
MPH
rain 1hr
in
rain 24hr
in
rain mn
in
humidity
%
barometer
mb
20260905101740 61 17 0.0 0.0 0.00 0.03 0.00 93 1016.3
20260905101240 61 17 0.0 0.0 0.00 0.03 0.00 93 1016.1
20260905100741 61 17 0.0 0.0 0.00 0.03 0.00 93 1016.1
20260905095744 62 24 0.0 0.0 0.00 0.03 0.00 93 1015.9
20260905095244 62 24 0.0 0.0 0.00 0.03 0.00 93 1016.0
20260905094744 62 24 0.0 0.0 0.00 0.03 0.00 93 1016.0
20260905094243 63 24 0.0 0.0 0.00 0.03 0.00 93 1016.0
20260905093244 63 24 0.0 0.0 0.00 0.03 0.00 93 1015.8
20260905092744 63 5 0.0 0.0 0.00 0.03 0.00 93 1015.9
20260905092243 63 355 0.0 0.0 0.00 0.03 0.00 93 1015.9
20260905091743 64 5 0.0 0.0 0.00 0.03 0.00 92 1015.9
20260905091243 64 5 0.0 0.0 0.00 0.03 0.00 93 1015.8
20260905090743 64 5 0.0 0.0 0.00 0.03 0.00 93 1015.8
20260905090243 64 9 0.0 0.0 0.00 0.03 0.00 93 1015.8
20260905085743 64 9 0.0 0.0 0.00 0.03 0.00 93 1015.8
20260905085244 64 9 0.0 0.0 0.00 0.03 0.00 93 1015.8
20260905084243 64 24 0.0 0.0 0.00 0.03 0.00 93 1015.6
20260905083743 64 14 0.0 0.0 0.00 0.03 0.00 93 1015.6
20260905083243 65 32 0.0 0.0 0.00 0.03 0.00 93 1015.8
20260905082743 65 35 0.0 0.0 0.00 0.03 0.00 93 1015.8
20260905081243 65 83 0.0 0.0 0.00 0.03 0.00 93 1015.8
20260905080743 65 83 0.0 0.0 0.00 0.03 0.00 93 1015.7
20260905080243 65 55 0.0 0.0 0.00 0.03 0.00 93 1015.8
20260905075743 65 55 0.0 0.0 0.00 0.03 0.00 93 1015.9
20260905075243 65 60 0.0 0.0 0.00 0.03 0.00 93 1016.0
20260905074744 65 47 0.0 0.0 0.00 0.03 0.00 93 1016.0
20260905074243 65 5 0.0 0.0 0.00 0.03 0.00 93 1016.0
20260905073743 65 5 0.0 0.0 0.00 0.03 0.00 93 1016.0
20260905073244 65 11 0.0 0.0 0.00 0.03 0.00 93 1016.0
20260905072743 65 11 0.0 0.0 0.00 0.03 0.00 93 1016.0
20260905071743 65 12 0.0 0.0 0.00 0.03 0.00 93 1015.9
20260905071244 65 17 0.0 0.0 0.00 0.03 0.00 93 1015.9
20260905070743 65 17 0.0 0.0 0.00 0.03 0.00 92 1015.8
20260905070243 65 14 0.0 0.0 0.00 0.03 0.00 92 1015.8
20260905065243 65 59 0.0 0.0 0.00 0.03 0.00 92 1015.8
20260905064744 65 59 0.0 0.0 0.00 0.03 0.00 92 1015.8
20260905064243 65 60 0.0 0.0 0.00 0.03 0.00 92 1015.8
20260905063743 65 5 0.0 0.0 0.00 0.03 0.00 92 1015.8
20260905063243 65 46 0.0 0.0 0.00 0.03 0.00 92 1015.8
20260905062743 65 45 0.0 0.0 0.00 0.03 0.00 92 1015.8
20260905062243 65 38 0.0 0.0 0.00 0.03 0.00 92 1015.8
20260905061744 65 38 0.0 0.0 0.00 0.03 0.00 92 1015.8
20260905061243 65 58 0.0 0.0 0.00 0.03 0.00 92 1015.8
20260905060743 65 83 0.0 0.0 0.00 0.03 0.00 91 1015.8
20260905055745 65 69 0.0 0.0 0.00 0.03 0.00 92 1015.8
20260905055245 65 68 0.0 0.0 0.00 0.03 0.00 92 1015.8
20260905054745 65 105 0.0 0.0 0.00 0.03 0.00 92 1015.8
20260905054245 65 60 0.0 0.0 0.00 0.03 0.00 92 1015.8
20260905053745 65 127 0.0 0.0 0.00 0.03 0.00 93 1015.9
20260905053245 64 80 0.0 0.0 0.00 0.03 0.00 93 1015.7
20260905052745 64 182 0.0 0.0 0.00 0.03 0.00 93 1015.8
20260905052245 64 82 0.0 0.0 0.00 0.03 0.00 93 1015.7
20260905051745 64 96 0.0 0.0 0.00 0.03 0.00 93 1015.8
20260905051245 64 67 0.0 0.0 0.00 0.03 0.00 93 1015.7
20260905050745 64 73 0.0 0.0 0.00 0.03 0.00 93 1015.7
20260905050245 64 17 0.0 0.0 0.00 0.03 0.00 93 1015.6
20260905045745 64 117 0.0 0.0 0.00 0.03 0.00 93 1015.7
20260905045245 63 117 0.0 0.0 0.00 0.03 0.00 94 1015.5
20260905043745 63 65 0.0 0.0 0.00 0.03 0.00 93 1015.6
20260905043245 63 104 0.0 0.0 0.00 0.03 0.00 93 1015.6
20260905042745 63 104 0.0 0.0 0.00 0.03 0.00 93 1015.5
20260905042245 63 93 0.0 0.0 0.00 0.03 0.00 93 1015.5
20260905041745 64 92 0.0 0.0 0.00 0.03 0.00 92 1015.5
20260905041245 64 56 0.0 0.0 0.00 0.03 0.00 92 1015.6
20260905040745 64 56 0.0 0.0 0.00 0.03 0.00 92 1015.6
20260905040245 64 93 0.0 0.0 0.00 0.03 0.00 92 1015.6
20260905035745 64 93 0.0 0.0 0.00 0.03 0.00 92 1015.5
20260905035245 64 93 0.0 0.0 0.00 0.03 0.03 92 1015.3
20260905034745 64 115 0.0 0.0 0.00 0.03 0.03 92 1015.3
20260905034245 64 113 0.0 0.0 0.00 0.03 0.03 92 1015.4
20260905032745 65 323 0.0 0.0 0.00 0.03 0.03 92 1015.6
20260905032245 65 323 0.0 0.0 0.00 0.03 0.03 92 1015.6
20260905031745 65 62 0.0 0.0 0.00 0.03 0.03 91 1015.6
20260905031245 65 76 0.0 0.0 0.00 0.03 0.03 91 1015.6
20260905030745 65 96 0.0 0.0 0.00 0.03 0.03 92 1015.6
20260905025745 65 93 0.0 0.0 0.00 0.03 0.03 92 1015.7
20260905025245 65 163 0.0 0.0 0.00 0.03 0.03 92 1015.7
20260905024245 65 93 0.0 0.0 0.00 0.03 0.03 91 1015.4
20260905023745 65 65 0.0 0.0 0.00 0.03 0.03 91 1015.4
20260905022745 65 19 0.0 0.0 0.00 0.03 0.03 91 1015.4
20260905022245 66 142 0.0 0.0 0.00 0.03 0.03 91 1015.5
20260905021745 66 113 0.0 0.0 0.00 0.03 0.03 91 1015.5
20260905021245 66 44 0.0 0.0 0.00 0.03 0.03 91 1015.5
20260905015748 66 27 0.0 0.0 0.00 0.03 0.03 91 1015.4
20260905015248 66 17 0.0 0.0 0.00 0.03 0.03 90 1015.4
20260905014248 67 38 0.0 0.0 0.00 0.03 0.03 90 1015.5
20260905013748 67 51 0.0 0.0 0.00 0.03 0.03 90 1015.5
20260905013248 67 62 0.0 0.0 0.00 0.03 0.03 90 1015.6
20260905012748 67 44 0.0 0.0 0.00 0.03 0.03 90 1015.6
20260905012248 68 49 0.0 0.0 0.00 0.03 0.03 90 1015.6
20260905011748 68 18 0.0 0.0 0.00 0.03 0.03 90 1015.4
20260905011248 68 65 0.0 0.0 0.00 0.03 0.03 90 1015.5
20260905010748 68 68 0.0 0.0 0.00 0.03 0.03 90 1015.4
20260905010248 68 76 0.0 0.0 0.00 0.03 0.03 90 1015.3
20260905005748 68 164 0.0 0.0 0.00 0.03 0.03 90 1015.3
20260905005248 68 160 0.0 0.0 0.00 0.03 0.03 90 1015.1
20260905004748 68 88 0.0 0.0 0.00 0.03 0.03 90 1015.1
20260905004248 68 130 0.0 0.0 0.00 0.03 0.03 90 1015.1
20260905003748 68 61 0.0 0.0 0.00 0.03 0.03 89 1015.0
20260905003248 68 46 0.0 0.0 0.00 0.03 0.03 89 1014.9
20260905002748 68 161 0.0 0.0 0.00 0.03 0.03 89 1014.8
20260905002248 68 97 0.0 0.0 0.00 0.03 0.03 89 1014.8
20260905001748 68 98 0.0 0.0 0.00 0.03 0.03 89 1014.8
20260905001248 68 72 0.0 0.0 0.00 0.03 0.03 89 1014.9
20260905000248 68 49 0.0 0.0 0.00 0.03 0.03 89 1014.9
20260904235248 68 180 0.0 0.0 0.00 0.03 0.03 89 1015.0
20260904234748 69 54 0.0 0.0 0.00 0.03 0.03 88 1015.0
20260904234248 69 80 0.0 0.0 0.00 0.03 0.03 88 1014.9
20260904233748 69 103 0.0 0.0 0.00 0.03 0.03 88 1014.8
20260904233248 69 30 0.0 0.0 0.00 0.03 0.03 88 1014.9
20260904232248 69 56 0.0 0.0 0.00 0.03 0.03 88 1014.7
20260904231748 69 48 0.0 0.0 0.00 0.03 0.03 88 1014.6
20260904231248 69 54 0.0 0.0 0.00 0.03 0.03 88 1014.6
20260904230748 69 76 0.0 0.0 0.00 0.03 0.03 87 1014.5
20260904230248 69 61 0.0 0.0 0.00 0.03 0.03 88 1014.5
20260904225748 69 56 0.0 0.0 0.00 0.03 0.03 88 1014.5
20260904224248 70 98 0.0 0.0 0.00 0.03 0.03 87 1014.5
20260904223748 70 52 0.0 0.0 0.00 0.03 0.03 87 1014.4
20260904223248 70 76 0.0 0.0 0.00 0.03 0.03 87 1014.4
20260904222748 70 55 0.0 0.0 0.00 0.03 0.03 87 1014.4
20260904222248 70 112 0.0 0.0 0.00 0.03 0.03 87 1014.3
20260904221748 70 85 0.0 0.0 0.00 0.03 0.03 87 1014.1
20260904221248 70 316 0.0 0.0 0.00 0.03 0.03 87 1014.1
20260904220748 70 11 0.0 0.0 0.00 0.03 0.03 87 1014.1
20260904215757 70 355 0.0 0.0 0.00 0.03 0.03 86 1014.2
20260904215257 70 15 0.0 0.0 0.00 0.03 0.03 86 1014.1
20260904214757 70 355 0.0 0.0 0.00 0.03 0.03 87 1014.1
20260904214257 70 355 0.0 0.0 0.00 0.03 0.03 86 1014.1
20260904213757 70 48 0.0 0.0 0.00 0.03 0.03 86 1014.2
20260904213257 70 71 0.0 0.0 0.00 0.03 0.03 86 1014.2
20260904212757 70 43 0.0 0.0 0.00 0.03 0.03 86 1014.2
20260904212256 71 69 0.0 0.0 0.00 0.03 0.03 86 1014.3
20260904211757 71 5 0.0 0.0 0.00 0.03 0.03 86 1014.4
20260904211257 71 355 0.0 0.0 0.00 0.03 0.03 85 1014.3
20260904210757 71 78 0.0 0.0 0.00 0.03 0.03 85 1014.3
20260904210257 71 35 0.0 0.0 0.00 0.03 0.03 85 1014.3
20260904205757 71 38 0.0 0.0 0.00 0.03 0.03 84 1014.4
20260904205257 71 117 0.0 0.0 0.00 0.03 0.03 83 1014.5
20260904204757 72 98 0.0 0.0 0.00 0.03 0.03 83 1014.4
20260904204256 72 55 0.0 0.0 0.00 0.03 0.03 83 1014.3
20260904203757 72 355 0.0 0.0 0.00 0.03 0.03 83 1014.3
20260904203256 72 16 0.0 0.0 0.00 0.03 0.03 84 1014.4
20260904202757 72 88 0.0 0.0 0.00 0.03 0.03 84 1014.2
20260904202257 73 12 0.0 0.0 0.00 0.03 0.03 83 1014.3
20260904201756 73 58 0.0 0.0 0.00 0.03 0.03 82 1014.4
20260904201257 73 67 0.0 0.0 0.00 0.03 0.03 82 1014.2
20260904200757 73 49 0.0 0.0 0.00 0.03 0.03 83 1014.3
20260904200257 73 5 0.0 0.0 0.00 0.03 0.03 82 1014.2
20260904195757 74 34 0.0 0.0 0.00 0.03 0.03 81 1014.2
20260904195257 74 36 0.0 0.0 0.00 0.03 0.03 82 1014.2
20260904194256 74 61 0.0 0.0 0.00 0.03 0.03 81 1014.2
20260904193756 74 51 0.0 0.0 0.00 0.03 0.03 81 1014.2
20260904193257 74 71 0.0 0.0 0.00 0.03 0.03 80 1014.1
20260904192756 75 43 0.0 0.0 0.00 0.03 0.03 81 1014.2
20260904192257 75 63 0.0 0.0 0.00 0.03 0.03 80 1014.1
20260904191757 75 55 0.0 0.0 0.00 0.03 0.03 80 1014.2
20260904190757 75 53 0.0 0.0 0.00 0.03 0.03 81 1014.1
20260904185757 75 323 0.0 0.0 0.00 0.03 0.03 79 1014.1
20260904185256 76 347 0.0 0.0 0.00 0.03 0.03 79 1014.1
20260904184756 76 328 0.0 0.0 0.00 0.03 0.03 78 1014.1
20260904184256 76 36 0.0 0.0 0.00 0.03 0.03 79 1014.0
20260904183756 76 65 0.0 0.0 0.00 0.03 0.03 80 1014.0
20260904183257 75 61 0.0 0.0 0.00 0.03 0.03 80 1013.9
20260904182756 75 70 0.0 0.0 0.00 0.03 0.03 82 1014.0
20260904182256 74 69 0.0 0.0 0.00 0.03 0.03 83 1014.2
20260904181757 74 32 0.0 0.0 0.00 0.03 0.03 83 1014.3
20260904181256 74 42 0.0 0.0 0.00 0.03 0.03 83 1014.4
20260904180756 74 67 0.0 0.0 0.00 0.03 0.03 83 1014.4
20260904175754 75 61 0.0 0.0 0.00 0.03 0.03 83 1014.3
20260904175254 75 57 0.0 0.0 0.00 0.03 0.03 83 1014.3
20260904174254 75 63 0.0 0.0 0.00 0.03 0.03 82 1014.4
20260904173754 75 163 0.0 0.0 0.00 0.03 0.03 83 1014.4
20260904172738 75 156 0.0 0.0 0.00 0.03 0.03 83 1014.5
20260904172238 75 71 0.0 0.0 0.00 0.03 0.03 83 1014.6
20260904171738 74 158 0.0 0.0 0.00 0.03 0.03 83 1014.5
20260904171238 74 142 0.0 0.0 0.00 0.03 0.03 84 1014.5
20260904170238 73 70 0.0 0.0 0.00 0.03 0.03 84 1014.4
20260904165738 73 118 0.0 0.0 0.00 0.03 0.03 84 1014.5
20260904165238 73 37 0.0 0.0 0.00 0.03 0.03 84 1014.4
20260904164738 73 35 0.0 0.0 0.00 0.03 0.03 84 1014.4
20260904164238 72 130 0.0 0.0 0.00 0.03 0.03 84 1014.4
20260904163738 72 59 0.0 0.0 0.00 0.03 0.03 84 1014.4
20260904163238 72 146 0.0 0.0 0.00 0.03 0.03 84 1014.5
20260904162738 72 71 0.0 0.0 0.00 0.03 0.03 83 1014.4
20260904162238 71 196 0.0 0.0 0.00 0.03 0.03 83 1014.3
20260904161738 71 61 0.0 0.0 0.00 0.03 0.03 84 1014.2
20260904161238 70 124 0.0 0.0 0.00 0.03 0.03 85 1014.1
20260904160738 70 113 0.0 0.0 0.00 0.03 0.03 85 1014.1
20260904160238 70 49 0.0 0.0 0.00 0.03 0.03 85 1014.2
20260904155738 70 95 0.0 0.0 0.00 0.03 0.03 85 1014.1
20260904154739 70 28 0.0 0.0 0.00 0.03 0.03 86 1014.3
20260904154238 69 206 0.0 0.0 0.00 0.03 0.03 86 1014.5
20260904153738 69 196 0.0 0.0 0.00 0.03 0.03 87 1014.2
20260904153238 68 129 0.0 0.0 0.00 0.03 0.03 87 1014.1
20260904152739 68 55 0.0 0.0 0.00 0.03 0.03 88 1014.4
20260904152238 68 128 0.0 0.0 0.00 0.03 0.03 87 1014.7
20260904151738 68 69 0.0 0.0 0.00 0.03 0.03 88 1015.0
20260904151238 68 92 0.0 0.0 0.00 0.03 0.03 87 1015.1
20260904145738 67 80 0.0 0.0 0.00 0.03 0.03 88 1015.0
20260904145238 67 51 0.0 0.0 0.00 0.03 0.03 88 1015.1
20260904144738 67 42 0.0 0.0 0.00 0.03 0.03 88 1015.2
20260904144238 67 33 0.0 0.0 0.00 0.03 0.03 89 1015.2
20260904143738 67 66 0.0 0.0 0.00 0.03 0.03 88 1015.2
20260904143238 67 69 0.0 0.0 0.00 0.03 0.03 88 1015.2
20260904142738 67 71 0.0 0.0 0.00 0.03 0.03 88 1015.1
20260904142238 67 77 0.0 0.0 0.00 0.03 0.03 88 1014.9
20260904141738 67 33 0.0 0.0 0.00 0.03 0.03 88 1014.9
20260904141238 67 46 0.0 0.0 0.00 0.03 0.03 88 1014.9
20260904140738 67 20 0.0 0.0 0.00 0.03 0.03 88 1015.0
20260904135734 67 101 0.0 0.0 0.00 0.03 0.03 89 1015.1
20260904135234 67 118 0.0 0.0 0.00 0.03 0.03 89 1015.2
20260904134734 66 74 0.0 0.0 0.00 0.03 0.03 90 1014.9
20260904134234 66 119 0.0 0.0 0.00 0.03 0.03 90 1014.8
20260904133235 65 11 0.0 0.0 0.00 0.03 0.03 90 1014.4
20260904132734 65 125 0.0 0.0 0.00 0.03 0.03 90 1014.3
20260904131735 65 116 0.0 0.0 0.00 0.03 0.03 91 1014.5
20260904131235 65 51 0.0 0.0 0.00 0.03 0.03 91 1014.4
20260904130735 64 86 0.0 0.0 0.00 0.03 0.03 92 1014.4
20260904130234 64 58 0.0 0.0 0.00 0.03 0.03 92 1014.6
20260904125234 64 5 0.0 0.0 0.00 0.03 0.03 93 1014.6
20260904124235 64 34 0.0 0.0 0.00 0.03 0.03 93 1014.3
20260904123734 64 90 0.0 0.0 0.00 0.03 0.03 93 1014.3
20260904123234 64 129 0.0 0.0 0.00 0.03 0.03 93 1014.3
20260904122734 63 30 0.0 0.0 0.01 0.03 0.03 93 1014.3
20260904122234 63 59 0.0 0.0 0.01 0.03 0.03 93 1014.5
20260904121734 63 48 0.0 0.0 0.01 0.03 0.03 94 1014.4
20260904121234 63 345 0.0 0.0 0.01 0.03 0.03 94 1014.2
20260904120735 63 53 0.0 0.0 0.01 0.03 0.03 94 1014.3
20260904115735 63 117 0.0 0.0 0.01 0.03 0.03 94 1014.1
20260904115235 63 103 0.0 0.0 0.02 0.03 0.03 94 1014.4
20260904114734 63 40 0.0 0.0 0.02 0.03 0.03 94 1014.4
20260904114235 63 48 0.0 0.0 0.02 0.03 0.03 94 1014.4
20260904113734 63 74 0.0 0.0 0.02 0.03 0.03 94 1014.4
20260904113235 64 65 0.0 0.0 0.02 0.03 0.03 94 1014.1
20260904112734 64 76 0.0 0.0 0.02 0.02 0.02 94 1014.0
20260904111734 64 90 0.0 0.0 0.02 0.02 0.02 94 1013.7
20260904111234 64 275 0.0 0.0 0.02 0.02 0.02 94 1013.8
20260904110735 64 136 0.0 0.0 0.02 0.02 0.02 94 1014.5
20260904110234 64 40 0.0 0.0 0.02 0.02 0.02 94 1014.9
20260904105734 65 47 0.0 0.0 0.02 0.02 0.02 94 1014.9
20260904105234 65 355 0.0 0.0 0.01 0.01 0.01 94 1015.2
20260904104234 64 34 0.0 0.0 0.01 0.01 0.01 94 1015.2
20260904103234 64 348 0.0 0.0 0.01 0.01 0.01 94 1015.2
20260904102234 63 19 0.0 0.0 0.00 0.00 0.00 94 1015.0